Location: Sungai Apap
(2.6167°N, 113.3833°E)
Time: 15:14:27
(UTC+00:00)

ARGOS - Pass Details

Date: 25 May 2024
Orbit: 819 x 834 km, 98.4° (Epoch: 12 June)

Event Time Altitude Azimuth Distance (km) Brightness Sun altitude
Rises 21:29:40 0° 0° (N) 3,346 6.6 -11.6°
Reaches altitude 10° 21:32:05 10° 354° (N) 2,418 5.8 -11.0°
Maximum altitude 21:37:10 45° 283° (WNW) 1,122 3.5 -9.8°
Drops below altitude 10° 21:42:17 10° 211° (SSW) 2,434 5.1 -8.6°
Sets 21:44:44 0° 205° (SSW) 3,372 5.9 -8.1°
